Location: Beetenbrück
(52.8113°N, 9.5946°E)
Time: 21:38:21
(UTC+00:00)

CZ-4B DEB - Pass Details

Date: 14 April 2026
Orbit: 834 x 853 km, 98.9° (Epoch: 12 May)

Event Time Altitude Azimuth Distance (km) Brightness Sun altitude
Rises 18:52:41 0° 154° (SSE) 3,384 6.9 -5.6°
Reaches altitude 10° 18:55:02 10° 152° (SSE) 2,456 6.2 -5.9°
Maximum altitude 19:00:27 71° 70° (ENE) 898 4.2 -6.6°
Drops below altitude 10° 19:05:57 10° 347° (NNW) 2,486 7.2 -7.4°
Sets 19:08:20 0° 346° (NNW) 3,428 8.0 -7.7°
